• In Uzbekistan
  • List of Countries
  • For 7 days
  • Water Temperature
  • Satellite Maps
  • Weather Map
  • Weather Widgets
  • user-avatar
    Login

    Hourly Weather Quebec

    Today, 18 July, Wednesday

    Time Temperature Precipitation Wind Pressure Humidity
    00:00 +7°C° 0 mm 3 mps 693 mmHg 79%
    01:00 +5°C° 0 mm 3 mps 693 mmHg 80%
    02:00 +4°C° 0 mm 3 mps 693 mmHg 83%
    03:00 +4°C° 0 mm 3 mps 693 mmHg 85%
    04:00 +4°C° 0 mm 2 mps 693 mmHg 87%
    05:00 +4°C° 0 mm 3 mps 694 mmHg 79%
    06:00 +6°C° 0 mm 4 mps 694 mmHg 72%
    07:00 +7°C° 0 mm 4 mps 694 mmHg 64%
    08:00 +8°C° 0 mm 5 mps 695 mmHg 59%
    09:00 +10°C° 0 mm 5 mps 695 mmHg 54%
    10:00 +12°C° 0 mm 5 mps 695 mmHg 48%
    11:00 +13°C° 0 mm 5 mps 695 mmHg 46%
    12:00 +14°C° 0 mm 5 mps 695 mmHg 44%
    13:00 +15°C° 0 mm 5 mps 696 mmHg 41%
    14:00 +15°C° 0 mm 5 mps 696 mmHg 41%
    15:00 +16°C° 0 mm 5 mps 696 mmHg 40%
    16:00 +16°C° 0 mm 5 mps 696 mmHg 39%
    17:00 +15°C° 0 mm 4 mps 696 mmHg 43%
    18:00 +14°C° 0 mm 3 mps 696 mmHg 47%
    19:00 +14°C° 0 mm 2 mps 696 mmHg 51%
    20:00 +13°C° 0 mm 2 mps 695 mmHg 55%
    21:00 +10°C° 0 mm 2 mps 695 mmHg 59%
    22:00 +9°C° 0 mm 2 mps 695 mmHg 64%
    23:00 +8°C° 0 mm 2 mps 695 mmHg 67%

    Tomorrow, 19 July, Thursday

    Time Temperature Precipitation Wind Pressure Humidity
    00:00 +8°C° 0 mm 2 mps 695 mmHg 71%
    01:00 +8°C° 0 mm 3 mps 694 mmHg 75%
    02:00 +8°C° 0 mm 3 mps 694 mmHg 76%
    03:00 +8°C° 0 mm 3 mps 694 mmHg 76%
    04:00 +8°C° 0 mm 3 mps 694 mmHg 76%
    05:00 +8°C° 0.2 mm 4 mps 694 mmHg 74%
    06:00 +9°C° 0.2 mm 5 mps 694 mmHg 73%
    07:00 +10°C° 0.2 mm 5 mps 694 mmHg 71%
    08:00 +10°C° 1.4 mm 6 mps 694 mmHg 74%
    09:00 +11°C° 1.4 mm 6 mps 693 mmHg 78%
    10:00 +11°C° 1.4 mm 6 mps 693 mmHg 81%
    11:00 +13°C° 0.1 mm 6 mps 693 mmHg 81%
    12:00 +14°C° 0.1 mm 6 mps 693 mmHg 81%
    13:00 +14°C° 0.1 mm 6 mps 693 mmHg 81%
    14:00 +15°C° 0.5 mm 6 mps 693 mmHg 77%
    15:00 +16°C° 0.5 mm 6 mps 694 mmHg 74%
    16:00 +17°C° 0.5 mm 6 mps 694 mmHg 71%
    17:00 +17°C° 0.4 mm 6 mps 694 mmHg 73%
    18:00 +16°C° 0.4 mm 5 mps 694 mmHg 75%
    19:00 +15°C° 0.4 mm 4 mps 694 mmHg 78%
    20:00 +14°C° 0 mm 4 mps 695 mmHg 81%
    21:00 +13°C° 0 mm 4 mps 695 mmHg 84%
    22:00 +12°C° 0 mm 3 mps 695 mmHg 87%
    23:00 +11°C° 0 mm 3 mps 695 mmHg 89%

    Day after tomorrow, 20 July, Friday

    Time Temperature Precipitation Wind Pressure Humidity
    00:00 +10°C° 0 mm 3 mps 696 mmHg 90%
    01:00 +10°C° 0 mm 3 mps 696 mmHg 92%
    02:00 +9°C° 0 mm 3 mps 696 mmHg 93%
    03:00 +9°C° 0 mm 2 mps 697 mmHg 94%
    04:00 +8°C° 0 mm 2 mps 697 mmHg 95%
    05:00 +10°C° 0 mm 2 mps 698 mmHg 89%
    06:00 +12°C° 0 mm 2 mps 698 mmHg 84%
    07:00 +14°C° 0 mm 2 mps 699 mmHg 79%
    08:00 +15°C° 0 mm 2 mps 700 mmHg 70%
    09:00 +17°C° 0 mm 2 mps 700 mmHg 61%
    10:00 +19°C° 0 mm 2 mps 700 mmHg 52%
    11:00 +20°C° 0 mm 2 mps 701 mmHg 48%
    12:00 +21°C° 0 mm 2 mps 701 mmHg 44%
    13:00 +24°C° 0 mm 2 mps 701 mmHg 40%
    14:00 +24°C° 0 mm 2 mps 701 mmHg 39%
    15:00 +24°C° 0 mm 2 mps 701 mmHg 39%
    16:00 +25°C° 0 mm 2 mps 701 mmHg 39%
    17:00 +24°C° 0 mm 2 mps 701 mmHg 44%
    18:00 +23°C° 0 mm 1 mps 701 mmHg 50%
    19:00 +21°C° 0 mm 1 mps 701 mmHg 55%
    20:00 +19°C° 0 mm 2 mps 701 mmHg 58%
    21:00 +17°C° 0 mm 2 mps 701 mmHg 62%
    22:00 +16°C° 0 mm 3 mps 701 mmHg 65%
    23:00 +14°C° 0.5 mm 3 mps 701 mmHg 68%

    21 July, Saturday

    Time Temperature Precipitation Wind Pressure Humidity
    00:00 +14°C° 0.5 mm 4 mps 701 mmHg 70%
    01:00 +13°C° 0.5 mm 4 mps 701 mmHg 72%
    02:00 +13°C° 0.5 mm 4 mps 701 mmHg 77%
    03:00 +12°C° 0.5 mm 4 mps 701 mmHg 81%
    04:00 +12°C° 0.5 mm 3 mps 701 mmHg 85%
    05:00 +13°C° 0.1 mm 4 mps 701 mmHg 83%
    06:00 +15°C° 0.1 mm 4 mps 701 mmHg 82%
    07:00 +17°C° 0.1 mm 4 mps 702 mmHg 80%
    08:00 +20°C° 0 mm 4 mps 702 mmHg 71%
    09:00 +22°C° 0 mm 5 mps 702 mmHg 63%
    10:00 +26°C° 0 mm 5 mps 702 mmHg 54%
    11:00 +27°C° 0 mm 6 mps 702 mmHg 48%
    12:00 +28°C° 0 mm 6 mps 702 mmHg 41%
    13:00 +29°C° 0 mm 6 mps 702 mmHg 35%
    14:00 +29°C° 0 mm 6 mps 702 mmHg 35%
    15:00 +29°C° 0 mm 5 mps 702 mmHg 34%
    16:00 +29°C° 0 mm 5 mps 702 mmHg 34%
    17:00 +27°C° 0 mm 4 mps 702 mmHg 40%
    18:00 +26°C° 0 mm 3 mps 701 mmHg 46%
    19:00 +24°C° 0 mm 2 mps 701 mmHg 51%
    20:00 +22°C° 0 mm 3 mps 701 mmHg 54%
    21:00 +21°C° 0 mm 3 mps 701 mmHg 57%
    22:00 +19°C° 0 mm 3 mps 701 mmHg 59%
    23:00 +19°C° 0 mm 4 mps 701 mmHg 62%

    22 July, Sunday

    Time Temperature Precipitation Wind Pressure Humidity
    00:00 +19°C° 0 mm 4 mps 701 mmHg 65%
    01:00 +19°C° 0 mm 5 mps 701 mmHg 68%
    02:00 +17°C° 0 mm 5 mps 701 mmHg 70%
    03:00 +17°C° 0 mm 5 mps 701 mmHg 73%
    04:00 +17°C° 0 mm 5 mps 701 mmHg 75%
    05:00 +19°C° 0 mm 5 mps 701 mmHg 71%
    06:00 +20°C° 0 mm 6 mps 701 mmHg 67%
    07:00 +21°C° 0 mm 6 mps 702 mmHg 63%
    08:00 +23°C° 0 mm 7 mps 702 mmHg 55%
    09:00 +26°C° 0 mm 7 mps 702 mmHg 47%
    10:00 +27°C° 0 mm 7 mps 701 mmHg 40%
    11:00 +28°C° 0 mm 8 mps 701 mmHg 36%
    12:00 +29°C° 0 mm 8 mps 701 mmHg 33%
    13:00 +29°C° 0 mm 8 mps 700 mmHg 30%
    14:00 +29°C° 0 mm 8 mps 700 mmHg 29%
    15:00 +29°C° 0 mm 7 mps 700 mmHg 29%
    16:00 +29°C° 0 mm 7 mps 700 mmHg 28%
    17:00 +28°C° 0 mm 6 mps 700 mmHg 34%
    18:00 +26°C° 0 mm 5 mps 700 mmHg 39%
    19:00 +23°C° 0 mm 4 mps 699 mmHg 44%
    20:00 +22°C° 0 mm 4 mps 699 mmHg 48%
    21:00 +21°C° 0 mm 4 mps 699 mmHg 51%
    22:00 +20°C° 0 mm 4 mps 699 mmHg 54%
    23:00 +20°C° 0 mm 4 mps 699 mmHg 60%

    23 July, Monday

    Time Temperature Precipitation Wind Pressure Humidity
    00:00 +19°C° 0 mm 4 mps 699 mmHg 66%
    01:00 +18°C° 0 mm 4 mps 699 mmHg 72%
    02:00 +18°C° 0 mm 4 mps 699 mmHg 76%
    03:00 +17°C° 0 mm 3 mps 699 mmHg 81%
    04:00 +17°C° 0 mm 3 mps 699 mmHg 85%
    05:00 +18°C° 0 mm 2 mps 699 mmHg 81%
    06:00 +18°C° 0 mm 2 mps 699 mmHg 77%
    07:00 +19°C° 0 mm 2 mps 699 mmHg 73%
    08:00 +21°C° 0 mm 2 mps 700 mmHg 67%
    09:00 +22°C° 0 mm 3 mps 700 mmHg 61%
    10:00 +24°C° 0 mm 3 mps 700 mmHg 55%
    11:00 +22°C° 0.4 mm 3 mps 700 mmHg 61%
    12:00 +21°C° 0.4 mm 3 mps 699 mmHg 67%
    13:00 +20°C° 0.4 mm 3 mps 699 mmHg 73%
    14:00 +21°C° 0.3 mm 2 mps 699 mmHg 71%
    15:00 +21°C° 0.3 mm 2 mps 699 mmHg 68%
    16:00 +22°C° 0.3 mm 1 mps 699 mmHg 66%
    17:00 +22°C° 0.1 mm 1 mps 699 mmHg 70%
    18:00 +21°C° 0.1 mm 1 mps 699 mmHg 74%
    19:00 +20°C° 0.1 mm 1 mps 699 mmHg 77%
    20:00 +19°C° 0.1 mm 1 mps 698 mmHg 81%
    21:00 +18°C° 0.1 mm 1 mps 698 mmHg 84%
    22:00 +18°C° 0.1 mm 1 mps 698 mmHg 88%
    23:00 +16°C° 0 mm 1 mps 698 mmHg 89%
    Show more